Content
SEND FEEDBACK

Daily
Averages
Monthly
Summary
United States of America

ELIZABETH, LOUISIANA


Home > North America > United States > Louisiana
Elevation: 140 feet     Latitude: 30 51N     Longitude: 092 47W

WEATHER
 
SELECT A DAY
Number of Records: 91,559;   Date Range: 3/3/05 - 7/27/14
 
SHARE

PRINT THIS DATA

[ ← Previous Day ]
WEATHER ALMANAC - JANUARY 31, 2013
[ Next Day → ]
[ °C ]   °F
Weather ElementAverageHighLow
Temperature47.6 °F63 °F (1:54 pm)30.9 °F (5:54 am)
Dewpoint29.1 °F36 °F (10:54 pm)23 °F (12:54 pm)
Humidity56.3 %96 % (7:54 am)22 % (1:54 pm)
Barometer30.35 in31.11 in (11:54 pm)30.26 in (3:54 am)
Wind Speed1.7 mph5.8 mph (1:54 pm)
Weather ElementAverage
Visibility10 mi
Wind DirectionNNE (8.3 °)

Weather ElementTotal
Precipitation---
Heating Degree Days18.1 (Base 65)
Averaged from 23 records on January 31, 2013
WEATHER CONDITIONS BREAKOUT
WIND DIRECTION BREAKOUT
WEATHER BY HOUR - JANUARY 31, 2013
[ °C ]   °F
Local TimeTemperatureDewpointHumidityBarometerVisibilityWind DirectionWind SpeedGust SpeedPrecipitationEventsConditions
1:54 AM34.0 °F30.9 °F89 %30.29 in10.0 miCalmClear
2:54 AM33.1 °F30.0 °F89 %30.27 in10.0 miCalmClear
3:54 AM32.0 °F30.0 °F92 %30.26 in10.0 miCalmClear
4:54 AM32.0 °F28.9 °F88 %30.27 in10.0 miCalmClear
5:54 AM30.9 °F28.9 °F92 %30.29 in10.0 miCalmClear
6:54 AM30.9 °F28.9 °F92 %30.30 in10.0 miCalmClear
7:54 AM33.1 °F32.0 °F96 %30.32 in10.0 miCalmClear
8:54 AM44.1 °F33.1 °F65 %30.35 in10.0 miVariable3.5 mphClear
9:54 AM52.0 °F30.0 °F43 %30.37 in10.0 miVariable3.5 mphClear
10:54 AM57.0 °F26.1 °F30 %30.37 in10.0 miVariable4.6 mphClear
11:54 AM59.0 °F24.1 °F26 %30.35 in10.0 miVariable4.6 mphClear
12:54 PM60.1 °F23.0 °F24 %30.31 in10.0 miVariable4.6 mphClear
1:54 PM63.0 °F23.0 °F22 %30.30 in10.0 miVariable5.8 mphClear
2:54 PM63.0 °F23.0 °F22 %30.29 in10.0 miVariable4.6 mphClear
3:54 PM63.0 °F23.0 °F22 %30.29 in10.0 miVariable4.6 mphClear
4:54 PM61.0 °F24.1 °F24 %30.29 in10.0 miCalmClear
5:54 PM53.1 °F30.0 °F41 %30.30 in10.0 miCalmClear
6:54 PM52.0 °F30.9 °F45 %30.31 in10.0 miCalmClear
7:54 PM52.0 °F32.0 °F47 %30.33 in10.0 miSouth (190°)3.5 mphClear
8:54 PM48.0 °F34.0 °F58 %30.38 in10.0 miCalmClear
9:54 PM46.9 °F33.1 °F59 %30.38 in10.0 miCalmClear
10:54 PM46.9 °F36.0 °F66 %30.38 in10.0 miCalmClear
11:54 PM46.9 °F35.1 °F63 %31.11 in10.0 miCalmClear
Hourly data recorded from KBKB, located miles away from Elizabeth, Louisiana







STORIES FROM OUR PARTNERS